This demonstration page uses our WeatherBlox Daily Observations layout. Learn more.

41.55636, -103.73856

Hourly Observations for July 25, 2016

Temp ( °F °C ) Dew Point ( °F °C ) Humidity (%) Winds ( mph kmh ) Pressure ( in mb ) Visibility ( mi km ) Precip ( " mm )
12:53 am 00:53 Clear 62 16.7 55 12.8 78 78 ESE 7 11 30.06 1018 10 16.0934 0 0
1:53 am 01:53 Clear 60 15.6 55 12.8 84 84 ENE 6 9 30.04 1017 10 16.0934 0 0
2:53 am 02:53 Clear 60 15.6 55 12.8 84 84 E 8 13 30.04 1017 10 16.0934 0 0
3:53 am 03:53 Clear 59 15 55 12.8 87 87 ESE 8 13 30.05 1018 10 16.0934 0 0
4:53 am 04:53 Clear 58 14.4 55 12.8 90 90 ESE 9 15 30.04 1017 10 16.0934 0 0
5:53 am 05:53 Sunny 58 14.4 54 12.2 87 87 ESE 9 15 30.04 1017 10 16.0934 0 0
6:53 am 06:53 Sunny 61 16.1 55 12.8 81 81 ESE 10 17 30.04 1017 10 16.0934 0 0
7:53 am 07:53 Sunny 66 18.9 56 13.3 70 70 SE 12 19 30.05 1018 10 16.0934 0 0
8:53 am 08:53 Sunny 72 22.2 57 13.9 59 59 SE 12 19 30.04 1017 10 16.0934 0 0
9:53 am 09:53 Sunny 78 25.6 55 12.8 45 45 S 13 20 30.03 1017 10 16.0934 0 0
10:53 am 10:53 Sunny 82 27.8 56 13.3 41 41 SSE 13 20 30.01 1016 10 16.0934 0 0
11:53 am 11:53 Sunny 85 29.4 54 12.2 35 35 SSE 21 33 29.99 1016 10 16.0934 0 0
12:53 pm 12:53 Sunny 88 31.1 56 13.3 34 34 SSE 16 26 29.97 1015 10 16.0934 0 0
1:53 pm 13:53 Sunny 91 32.8 56 13.3 31 31 S 16 26 29.94 1014 10 16.0934 0 0
2:53 pm 14:53 Sunny 93 33.9 55 12.8 28 28 SSE 15 24 29.91 1013 10 16.0934 0 0
3:53 pm 15:53 Sunny 94 34.4 54 12.2 26 26 SSE 13 20 29.9 1013 10 16.0934 0 0
4:53 pm 16:53 Sunny 91 32.8 53 11.7 27 27 S 13 20 29.89 1012 10 16.0934 0 0
5:53 pm 17:53 Sunny 93 33.9 54 12.2 27 27 SE 15 24 29.88 1012 10 16.0934 0 0
6:53 pm 18:53 Sunny 90 32.2 56 13.3 32 32 SSE 12 19 29.88 1012 10 16.0934 0 0
7:53 pm 19:53 Sunny 85 29.4 59 15 42 42 SE 12 19 29.9 1012 10 16.0934 0 0
8:53 pm 20:53 Clear 81 27.2 61 16.1 51 51 SE 13 20 29.91 1013 10 16.0934 0 0
9:53 pm 21:53 Clear 75 23.9 62 16.7 64 64 ESE 12 19 29.94 1014 10 16.0934 0 0
10:53 pm 22:53 Clear 75 23.9 61 16.1 62 62 ESE 12 19 29.94 1014 10 16.0934 0 0
11:53 pm 23:53 Clear 70 21.1 62 16.7 76 76 E 10 17 29.95 1014 10 16.0934 0 0

Powered by AerisWeather